Lid_Strength_Index
1 1 1 1 1 1 1 1 1 1 1 2 2 2 3 4 4 7 10 10 12 17 15 13 12 13 14 15 17 18 15 16 16 19 20 18 22 18 20 19 19 20 21 22 22 22 23 14 15 17 15 14 13 13
1 1 1 1 1 1 1 1 1 1 1 1 1 1 2 2 2 3 7 7 8 13 13 10 9 9 10 10 13 17 14 17 14 18 20 19 24 23 21 23 17 20 17 21 19 19 13 13 13 11 12 13 12 13
1 1 1 1 1 1 1 1 1 1 1 1 1 1 1 1 1 2 5 6 7 10 12 12 12 9 8 9 8 14 15 12 12 12 17 18 22 17 23 22 20 17 15 17 18 15 14 12 11 12 11 11 11 11
1 1 1 1 1 1 1 1 1 1 0 0 1 1 1 0 1 1 5 4 6 8 13 13 10 10 7 8 9 9 10 11 11 11 16 20 22 14 19 17 17 16 15 18 17 14 14 13 12 11 11 10 10 10
2 0 0 0 0 1 1 1 1 1 1 1 1 0 0 0 0 1 3 3 4 8 14 15 13 10 8 8 9 9 10 11 12 15 20 20 16 16 18 14 18 14 14 16 17 11 11 12 11 10 10 10 10 10
2 -1 -1 -0 0 0 0 0 1 1 1 1 1 1 1 1 -0 2 7 3 3 4 9 14 11 12 9 8 9 10 10 11 12 13 15 14 12 12 15 17 13 11 12 11 11 8 10 9 9 9 10 10 9 9
0 -0 -1 -1 -1 -0 -0 -0 0 0 1 1 1 1 1 1 2 6 7 5 1 2 8 11 13 13 10 10 13 11 10 11 10 10 14 12 13 10 13 17 12 11 10 9 8 9 10 9 9 9 9 9 10 12
-1 -0 -0 -1 -1 -1 -1 -0 -0 0 1 1 1 1 1 1 1 4 2 1 1 5 7 10 12 13 10 11 12 9 9 8 8 9 11 12 10 10 14 12 10 9 9 9 9 8 7 7 10 10 11 13 14 13
-0 -0 -1 -1 -1 -1 -1 -1 -0 -0 0 1 1 1 4 5 7 6 1 -0 1 4 9 10 13 19 10 10 9 9 7 11 8 10 11 9 12 14 13 11 9 9 9 8 9 11 11 11 9 11 13 16 14 13
-0 -0 -0 -0 -0 -1 -1 -1 -0 -0 0 1 3 6 8 6 2 1 3 5 6 6 7 10 17 16 11 12 15 11 10 11 13 11 9 11 12 10 10 10 9 8 8 9 12 13 19 17 14 13 14 14 14 16
-0 -0 -0 -0 -0 -1 -1 -0 -0 -0 0 4 6 7 6 2 5 6 9 10 12 13 10 14 13 16 11 16 16 10 13 12 15 14 13 14 16 11 8 9 8 8 8 10 9 9 13 13 13 14 17 17 17 18
0 0 0 0 0 0 0 0 -0 2 4 4 4 3 4 6 8 10 12 11 13 16 19 13 16 11 13 12 13 11 14 13 16 16 16 20 13 10 11 9 8 7 10 13 16 15 17 16 18 17 18 20 22 22
1 0 0 0 0 0 0 0 0 -0 1 4 7 8 8 10 12 13 17 19 19 23 15 15 15 12 10 9 12 12 14 15 14 15 16 17 13 14 11 12 20 21 19 19 21 21 21 23 24 24 24 25 25 26
1 1 1 1 1 1 0 0 0 0 4 8 10 13 12 14 14 18 19 18 14 15 15 15 12 13 12 12 11 14 13 14 16 17 19 12 16 16 17 22 21 23 22 22 24 24 24 25 26 27 27 28 28 29
2 2 2 2 1 1 1 0 -0 1 5 9 11 14 13 18 22 26 27 20 17 17 12 14 14 10 13 12 11 13 17 17 16 19 19 21 22 23 24 25 25 24 26 27 26 27 27 27 28 31 35 34 32 32
3 2 4 2 1 1 1 2 2 3 5 8 11 17 22 20 22 24 25 21 18 13 13 12 13 12 14 14 15 16 17 19 19 21 24 22 24 24 24 25 26 26 26 27 29 28 28 29 29 31 37 36 35 32
4 10 3 3 1 2 2 7 6 7 10 10 14 28 23 23 20 22 21 18 14 10 12 11 13 14 11 14 15 14 19 19 20 21 22 24 23 24 25 26 26 26 28 29 30 30 31 32 31 32 30 31 34 32
13 8 4 3 5 5 16 16 14 12 15 17 16 25 26 28 25 24 21 16 14 11 11 13 12 13 14 17 19 20 24 24 25 27 26 27 27 28 27 28 29 29 29 29 29 31 31 31 29 30 32 33 32 32
8 8 4 4 6 15 16 17 17 20 24 24 20 20 21 25 24 22 23 18 15 14 14 12 13 14 16 21 24 23 23 24 25 25 26 26 26 27 28 29 29 30 30 31 30 30 31 31 29 28 26 26 30 33
4 4 5 6 7 15 22 21 18 21 27 23 22 20 20 21 22 25 22 18 16 13 15 20 24 26 27 26 27 26 24 23 23 24 26 26 27 29 29 29 28 30 32 33 32 30 31 30 29 31 32 33 32 32
8 7 8 13 15 16 19 21 23 22 23 25 23 19 19 20 23 26 24 20 21 25 25 27 28 27 27 28 28 28 26 26 25 26 26 27 28 29 32 33 33 34 33 33 29 28 30 30 31 33 34 33 36 34
12 9 17 12 15 18 19 20 23 21 21 23 20 22 24 24 25 24 22 24 27 29 30 29 28 29 28 28 29 29 29 27 25 25 26 27 29 31 33 34 30 30 28 29 29 28 28 32 34 35 34 33 32 32
11 12 16 18 19 20 22 19 22 22 21 24 23 22 24 25 24 20 24 26 27 26 28 29 29 28 29 27 27 26 26 26 26 27 27 28 30 32 30 32 33 31 32 31 33 34 32 30 31 31 32 31 31 31
16 22 22 24 22 24 24 23 21 21 21 23 22 22 24 25 24 21 28 30 29 27 28 28 27 26 25 25 26 27 28 29 28 28 30 28 29 33 38 37 38 37 35 35 34 34 34 33 30 31 29 29 30 29
22 29 26 28 26 26 27 25 24 22 24 26 25 25 27 26 22 26 28 30 29 30 28 27 27 26 28 26 26 28 30 32 32 34 36 40 39 36 34 36 35 34 36 34 33 34 32 28 26 26 25 26 27 26
33 32 31 32 29 28 29 27 28 28 26 26 28 26 25 22 26 29 29 28 28 28 28 29 30 29 26 27 28 29 32 41 39 34 34 38 36 34 35 33 32 28 32 31 30 29 26 24 25 25 25 25 24 25
32 33 31 28 28 28 27 26 26 27 29 29 30 27 23 28 30 29 27 25 27 28 29 28 31 30 29 29 31 33 32 35 30 29 30 34 33 33 30 29 29 27 29 29 29 28 27 25 24 24 24 25 25 25
34 33 33 31 29 29 29 29 31 32 31 32 29 30 30 31 32 27 26 24 25 26 27 27 28 28 29 27 26 26 25 25 26 28 29 28 28 28 28 29 28 18 24 26 26 26 27 26 25 24 25 25 24 23
34 33 33 29 30 31 35 34 34 34 34 35 30 29 29 26 26 27 25 25 25 25 25 25 23 23 24 24 23 23 23 23 22 23 24 24 23 23 24 26 27 26 27 30 23 20 23 25 26 26 25 24 24 24
34 34 31 30 32 34 35 37 36 36 34 34 34 29 27 26 25 24 25 26 26 26 26 25 24 23 24 24 24 24 24 23 24 25 26 26 24 23 23 24 25 27 31 35 28 26 22 24 24 26 26 28 27 27
35 35 33 32 34 34 36 38 36 35 34 33 32 30 30 29 25 22 23 23 23 23 23 24 24 24 25 25 26 26 25 24 23 24 24 24 24 24 24 23 23 25 27 28 27 27 25 26 29 28 28 28 28 27
34 38 40 39 38 40 46 38 36 35 34 32 32 31 31 28 29 24 23 23 24 25 25 25 26 25 25 25 25 24 23 24 24 23 24 23 22 22 23 23 25 26 26 26 27 26 26 26 26 27 27 28 28 29
34 34 33 32 32 32 32 33 31 30 29 30 30 31 32 29 28 25 23 23 25 26 25 25 25 25 25 26 25 25 25 26 26 21 21 20 21 20 21 28 26 28 29 29 29 29 30 30 29 30 30 30 30 29